Temperature
9 8 8 7 7 7 6 6 5 5 4 4 3 3 3 2 2 1 1 0 -0 -0 -1 -1 -1 -2 -2 -3 -3 -3 -4 -4 -4 -4 -4 -4 -4 -4 -4 -3 -3 -3 -3
8 8 7 7 6 6 6 5 5 4 4 3 3 2 2 2 1 1 0 -0 -1 -1 -1 -2 -2 -2 -3 -3 -4 -4 -4 -4 -5 -5 -5 -5 -5 -4 -4 -4 -4 -4 -4
8 7 7 6 6 6 5 5 4 4 3 3 2 2 1 1 1 0 -0 -1 -1 -2 -2 -2 -2 -3 -3 -4 -4 -4 -4 -5 -5 -5 -5 -5 -5 -5 -5 -5 -4 -4 -4
7 7 6 6 6 5 4 4 4 3 3 2 2 1 1 0 0 -0 -1 -1 -2 -2 -2 -3 -3 -4 -4 -4 -5 -5 -5 -5 -5 -5 -5 -5 -5 -5 -5 -5 -5 -5 -5
7 6 6 5 5 4 4 3 3 2 2 2 1 1 0 0 -0 -1 -2 -2 -3 -3 -3 -3 -4 -4 -4 -5 -5 -5 -5 -5 -5 -5 -5 -5 -5 -5 -5 -5 -5 -5 -5
7 6 5 5 4 4 3 3 2 2 1 1 1 0 -0 -0 -1 -1 -2 -3 -3 -4 -4 -4 -4 -4 -4 -5 -5 -5 -5 -5 -5 -5 -5 -5 -5 -5 -6 -6 -6 -6 -6
6 5 5 4 4 3 3 2 2 1 1 1 0 -0 -1 -1 -1 -2 -3 -4 -4 -4 -4 -4 -5 -5 -5 -5 -5 -6 -5 -5 -6 -6 -6 -6 -6 -6 -6 -6 -6 -6 -6
5 5 4 4 3 3 2 2 1 1 0 0 -0 -1 -1 -1 -2 -3 -3 -4 -4 -4 -5 -5 -5 -5 -5 -6 -6 -6 -6 -6 -5 -6 -6 -6 -6 -6 -6 -6 -6 -6 -6
5 4 4 3 3 2 2 1 1 0 -0 -1 -1 -1 -2 -2 -2 -3 -4 -5 -5 -5 -5 -5 -6 -6 -6 -6 -6 -6 -6 -6 -6 -6 -6 -6 -6 -6 -6 -6 -6 -6 -6
4 4 3 2 2 1 1 0 0 -1 -1 -1 -1 -2 -2 -3 -3 -4 -5 -5 -6 -6 -6 -6 -6 -6 -6 -6 -6 -6 -6 -6 -6 -6 -6 -6 -6 -6 -6 -6 -7 -7 -7
3 3 2 2 1 1 0 -0 -1 -1 -2 -2 -2 -2 -3 -3 -4 -5 -5 -6 -6 -6 -6 -6 -6 -7 -7 -6 -6 -6 -6 -6 -6 -6 -6 -6 -6 -6 -7 -7 -7 -7 -7
2 2 2 1 1 0 -0 -1 -1 -2 -2 -3 -3 -3 -3 -4 -5 -5 -6 -6 -6 -7 -7 -7 -7 -7 -7 -7 -7 -7 -6 -6 -6 -6 -7 -7 -7 -7 -7 -7 -7 -7 -7
2 1 1 0 -0 -1 -1 -2 -2 -3 -3 -4 -4 -5 -4 -5 -5 -6 -6 -7 -7 -7 -7 -7 -7 -7 -7 -7 -7 -7 -7 -7 -7 -7 -7 -7 -7 -8 -8 -8 -8 -8 -7
1 1 0 -0 -1 -1 -2 -2 -3 -3 -4 -5 -5 -6 -6 -6 -6 -7 -7 -7 -7 -7 -7 -7 -7 -7 -7 -7 -7 -7 -7 -8 -8 -8 -8 -8 -8 -8 -8 -8 -8 -8 -8
0 -0 -1 -1 -2 -2 -2 -3 -4 -4 -5 -6 -6 -6 -7 -7 -7 -7 -7 -7 -7 -7 -7 -7 -7 -7 -8 -8 -8 -8 -8 -8 -9 -8 -9 -9 -9 -9 -9 -8 -9 -9 -8
-1 -1 -2 -2 -3 -3 -4 -4 -4 -5 -5 -6 -7 -7 -7 -7 -7 -8 -8 -8 -8 -8 -8 -8 -8 -8 -9 -9 -9 -9 -9 -9 -9 -9 -9 -9 -9 -9 -9 -9 -9 -9 -9
-2 -2 -3 -3 -4 -4 -5 -5 -6 -5 -6 -7 -7 -7 -7 -8 -8 -8 -8 -8 -8 -8 -8 -8 -9 -9 -9 -9 -10 -10 -10 -10 -10 -10 -10 -10 -9 -9 -9 -9 -9 -9 -9
-2 -3 -3 -4 -4 -5 -5 -6 -7 -7 -7 -7 -7 -8 -8 -8 -8 -9 -9 -9 -9 -9 -9 -9 -9 -10 -10 -10 -10 -10 -10 -10 -10 -10 -10 -10 -10 -10 -10 -10 -10 -9 -9
-3 -3 -4 -5 -5 -6 -6 -7 -7 -8 -8 -8 -8 -8 -8 -9 -9 -9 -9 -9 -10 -10 -10 -10 -10 -10 -10 -10 -11 -11 -11 -11 -11 -11 -10 -10 -10 -10 -10 -10 -10 -10 -10
-4 -5 -5 -6 -6 -7 -7 -8 -8 -8 -9 -9 -9 -9 -9 -10 -10 -10 -10 -10 -10 -10 -10 -10 -10 -11 -11 -11 -11 -11 -11 -11 -11 -11 -11 -10 -10 -10 -10 -10 -10 -10 -10
-5 -6 -6 -7 -7 -7 -8 -8 -9 -9 -9 -10 -10 -10 -10 -10 -10 -10 -10 -10 -10 -11 -11 -11 -11 -11 -11 -11 -11 -11 -11 -11 -11 -11 -11 -11 -10 -10 -10 -10 -10 -10 -10
-6 -7 -7 -7 -8 -8 -8 -9 -9 -9 -10 -10 -10 -10 -10 -11 -11 -11 -11 -11 -11 -11 -11 -11 -11 -11 -11 -11 -12 -12 -12 -12 -11 -11 -11 -11 -11 -11 -10 -10 -10 -10 -10
-7 -7 -8 -8 -8 -9 -9 -9 -9 -10 -10 -10 -11 -11 -11 -11 -11 -11 -11 -11 -11 -11 -11 -11 -12 -11 -11 -11 -12 -12 -12 -12 -11 -11 -11 -11 -11 -11 -11 -11 -10 -10 -10
-8 -8 -8 -9 -9 -9 -10 -10 -10 -11 -11 -11 -11 -11 -12 -12 -12 -12 -12 -12 -12 -12 -12 -12 -12 -12 -12 -12 -12 -12 -12 -12 -11 -11 -11 -11 -11 -11 -11 -11 -11 -11 -10
-8 -9 -9 -9 -10 -10 -10 -11 -11 -11 -12 -12 -12 -12 -12 -12 -12 -12 -12 -12 -12 -12 -12 -12 -12 -12 -12 -12 -12 -12 -12 -11 -11 -11 -11 -11 -11 -11 -11 -11 -11 -11 -11
-9 -10 -10 -10 -11 -11 -11 -12 -12 -12 -12 -12 -12 -12 -12 -13 -13 -12 -12 -12 -12 -13 -13 -13 -12 -12 -12 -12 -12 -12 -11 -11 -11 -11 -11 -11 -11 -11 -11 -11 -11 -11 -11
Wind_Speed
6 5 4 4 3 3 3 4 5 4 5 5 6 6 7 8 7 7 8 9 9 9 9 9 11 10 8 8 8 8 9 10 16 13 7 7 9 12 14 16 19 18 20
6 5 4 4 3 3 4 5 5 5 5 6 6 7 8 8 8 8 10 9 10 10 11 10 12 10 10 9 8 10 10 10 13 18 11 8 10 10 12 13 13 16 15
5 5 4 4 4 5 5 5 5 6 6 6 6 7 8 9 9 9 10 10 11 11 11 12 12 11 12 10 10 10 10 12 11 14 15 10 8 9 10 11 13 11 14
5 5 5 5 5 6 5 5 6 6 6 7 7 8 9 9 10 10 10 11 11 12 12 12 12 12 13 12 11 12 12 12 12 13 14 11 9 8 8 9 11 9 10
6 5 6 5 5 5 5 6 6 6 7 7 8 9 9 9 9 10 10 11 11 12 12 12 12 16 19 17 14 11 11 11 12 12 13 12 9 7 8 7 11 10 10
6 6 5 4 4 5 6 6 6 7 7 7 8 9 10 10 17 22 18 12 11 11 11 11 12 15 19 24 26 25 22 16 13 12 12 12 11 9 9 10 11 12 11
5 5 4 4 5 6 6 6 7 7 7 8 9 10 11 13 21 23 23 16 11 10 11 11 12 13 19 12 19 24 23 26 25 17 15 14 13 11 11 13 13 13 13
4 4 4 5 6 6 6 7 8 7 8 9 10 11 11 14 22 24 24 16 11 11 11 12 12 13 13 15 14 14 14 16 18 14 13 15 14 13 13 14 14 13 12
4 5 5 5 6 6 7 8 8 7 9 9 10 11 12 15 21 24 24 11 10 11 11 11 12 12 21 25 18 15 15 14 19 24 24 23 24 24 18 10 9 10 11
5 5 5 5 6 7 8 8 8 8 10 10 11 10 12 13 20 23 23 10 10 11 10 11 18 20 24 26 16 14 16 14 12 13 15 17 14 15 20 11 8 10 10
4 4 5 6 6 7 8 7 8 9 10 10 12 11 11 14 19 22 23 12 10 11 11 9 10 22 26 27 24 15 19 19 12 10 9 9 8 8 8 8 8 9 10
3 5 6 6 7 7 7 8 8 9 10 11 11 12 9 11 16 19 23 22 21 14 12 10 12 24 26 27 21 21 25 21 8 7 7 7 7 7 7 8 9 9 10
4 6 6 7 7 7 8 9 8 8 9 10 10 12 11 8 11 22 24 25 25 16 12 20 24 27 25 18 20 24 20 9 7 8 8 8 7 7 7 6 7 8 9
5 6 6 7 8 7 7 7 8 8 9 10 11 12 12 11 9 9 10 13 17 16 14 18 23 23 19 17 16 13 8 8 9 9 8 7 6 6 7 6 6 6 6
6 7 7 7 8 8 8 8 10 9 11 12 11 11 13 14 15 22 18 12 11 13 14 10 8 8 7 7 7 8 7 7 8 7 8 8 8 7 7 6 6 5 6
6 7 6 7 7 8 9 11 15 16 22 23 23 22 17 22 28 29 28 28 27 25 18 9 8 8 9 9 9 9 7 8 8 8 8 8 8 8 8 6 6 6 7
7 8 7 7 8 9 9 11 13 15 19 21 23 25 24 27 28 28 28 27 26 23 12 8 8 9 9 9 9 9 9 8 7 8 8 8 8 8 8 7 6 6 6
8 10 10 8 8 9 10 10 11 13 14 12 15 22 25 26 26 27 27 23 14 11 8 9 9 9 9 9 9 9 9 8 7 8 8 8 8 8 8 7 7 7 7
8 7 8 8 9 9 10 11 11 13 14 14 12 14 20 22 24 24 22 12 10 10 9 9 9 9 9 9 9 9 9 9 9 8 8 8 8 8 8 7 7 10 8
8 14 14 10 9 10 10 11 12 12 13 13 13 12 11 14 12 13 11 10 10 10 10 10 10 9 9 9 9 9 9 10 9 8 8 8 8 8 8 8 8 7 6
8 11 16 13 10 11 11 11 12 12 13 14 13 15 21 14 13 12 11 10 10 10 10 10 10 10 9 9 9 10 11 10 9 9 8 8 8 8 7 7 7 7 6
8 9 9 10 11 11 12 11 11 12 14 15 14 15 23 15 11 12 12 12 10 10 10 10 10 10 9 9 10 10 11 11 10 9 9 8 8 8 8 7 7 7 7
9 11 12 11 11 16 15 11 12 13 14 14 14 14 14 12 13 12 12 11 10 10 10 10 11 11 10 10 10 10 11 11 10 10 10 9 9 8 8 8 9 8 8
10 11 12 12 12 12 12 13 12 13 14 14 14 14 13 13 13 14 13 12 11 11 10 10 11 13 15 13 11 11 11 12 11 10 12 11 11 9 9 9 9 9 9
10 10 11 11 12 13 13 14 14 14 14 14 14 14 14 14 14 14 13 12 12 12 13 12 11 12 15 16 15 14 19 23 21 15 11 11 12 12 11 10 9 9 9
10 11 11 11 12 12 13 14 14 14 14 15 14 14 14 14 14 14 13 12 12 12 13 12 13 15 16 15 17 21 24 24 24 24 15 11 12 11 11 10 11 10 10
Wind_Direction
178 176 175 188 193 198 217 237 245 253 257 263 267 273 276 277 275 272 271 272 270 271 270 268 266 264 263 260 256 255 256 259 277 285 263 258 258 266 276 277 278 277 278
180 177 186 193 199 217 238 248 250 257 261 262 268 273 275 276 273 271 274 275 271 273 272 270 270 272 264 262 260 259 260 257 268 283 283 271 260 261 266 269 276 277 273
174 178 190 205 216 233 245 253 257 261 267 269 269 271 274 276 275 271 269 270 268 267 267 267 269 268 269 266 262 263 264 266 263 273 281 277 269 266 268 270 270 271 273
175 184 203 217 225 237 248 256 261 262 267 270 269 269 272 276 276 274 271 268 267 266 265 264 265 264 266 267 269 265 265 266 267 271 277 278 272 263 263 271 278 270 270
180 197 216 225 233 244 254 261 264 265 269 269 274 276 276 279 277 275 271 269 268 269 267 264 264 270 274 277 278 271 267 269 271 274 277 279 275 269 265 267 276 280 273
189 209 220 229 242 251 258 264 269 272 273 273 274 276 279 283 291 295 294 282 274 271 273 271 271 277 282 285 288 289 285 280 277 276 280 279 278 272 272 271 275 280 281
197 215 227 236 249 257 265 270 272 273 273 276 275 275 276 281 292 296 296 294 281 274 273 275 281 281 288 281 284 286 284 282 280 279 278 277 277 273 272 274 270 269 271
204 226 238 242 253 263 268 270 272 271 272 276 277 277 278 283 294 298 299 295 281 274 271 270 273 276 276 282 275 272 268 269 270 272 268 268 267 267 263 267 272 274 271
217 235 244 246 257 266 269 271 273 275 277 277 277 277 278 284 292 298 298 287 280 276 273 271 274 274 281 289 287 281 279 273 275 274 274 274 275 279 280 280 278 281 282
231 242 250 252 256 263 266 271 272 272 278 282 281 276 274 279 288 295 297 288 283 282 277 271 281 286 289 291 288 282 282 281 275 275 277 278 279 280 283 277 272 275 278
244 255 261 260 259 263 266 269 274 279 283 283 283 281 274 277 288 293 295 292 283 285 284 280 276 290 292 292 293 287 285 287 282 276 274 269 265 261 261 259 253 257 266
256 263 266 265 269 277 271 276 276 279 285 286 288 288 279 275 284 289 293 294 295 292 289 284 281 290 293 295 296 293 294 298 292 283 277 273 268 265 262 259 258 255 256
268 269 270 272 268 268 269 277 282 277 280 287 288 291 291 281 280 290 294 296 296 294 286 288 292 296 299 299 295 297 299 296 289 281 276 274 268 265 267 270 269 265 265
269 273 275 275 277 271 270 272 275 278 280 284 287 289 291 290 283 279 278 286 290 290 289 289 293 295 295 293 295 296 288 278 281 277 276 275 273 270 269 266 271 273 275
271 275 278 275 274 278 273 267 273 265 269 281 283 283 289 292 290 295 296 293 289 284 292 288 286 289 286 283 283 281 276 277 283 274 275 277 277 275 273 268 265 266 268
280 278 278 278 279 280 285 289 281 279 286 288 289 290 289 290 297 299 301 300 301 300 301 293 292 291 289 288 289 288 284 281 277 276 275 273 275 274 274 272 267 262 267
272 280 282 280 282 284 286 290 296 296 291 291 292 294 294 297 299 301 302 302 300 302 299 289 287 286 285 285 285 283 282 279 276 275 275 273 272 271 270 271 269 267 267
273 282 286 280 279 281 283 285 288 293 299 296 293 293 296 298 300 301 302 304 299 296 280 279 281 282 281 281 282 282 280 279 275 273 271 269 267 268 269 266 263 261 266
278 279 280 279 279 280 283 285 286 287 290 293 295 294 296 298 300 299 301 295 289 288 284 279 277 278 279 279 279 279 278 277 274 273 271 267 264 262 263 262 261 264 265
280 287 293 289 286 286 286 286 288 288 290 291 291 293 297 297 294 293 290 283 281 281 281 280 278 277 278 277 277 277 277 275 271 269 269 267 263 259 259 259 258 258 257
282 288 293 293 286 286 286 285 285 286 288 290 289 291 295 296 293 292 290 286 280 278 279 279 278 277 274 273 273 272 272 273 269 265 265 266 263 260 255 253 253 253 255
282 284 285 285 287 286 286 284 285 287 288 289 291 293 296 295 290 289 288 285 282 279 275 276 277 275 270 271 272 273 273 272 269 264 262 262 260 259 255 251 249 249 249
284 287 289 288 288 290 294 289 288 288 289 290 291 292 292 289 287 287 286 286 284 281 278 275 276 275 271 269 268 267 269 270 268 264 262 263 260 257 253 249 245 246 245
285 286 289 292 293 292 291 291 291 290 290 290 289 289 289 288 288 287 287 286 284 282 279 277 275 274 273 274 272 268 265 265 264 262 257 257 257 255 251 248 244 241 241
289 290 293 293 293 293 292 292 291 290 290 290 290 290 289 289 288 287 286 284 283 282 280 278 277 276 275 273 272 271 272 273 273 268 257 251 250 247 245 245 242 240 236
294 294 295 293 292 291 291 291 291 290 290 290 290 288 288 288 288 287 287 285 284 283 283 281 276 274 275 276 275 275 277 276 274 273 265 255 247 243 239 240 238 235 233
Height
1515 1516 1516 1516 1516 1515 1514 1512 1510 1508 1506 1503 1500 1497 1494 1491 1488 1484 1480 1476 1472 1469 1466 1462 1459 1456 1452 1449 1446 1443 1440 1436 1426 1419 1419 1417 1415 1413 1411 1409 1406 1403 1400
1511 1511 1512 1511 1511 1510 1509 1507 1505 1503 1500 1497 1494 1491 1488 1484 1480 1476 1472 1469 1465 1461 1458 1454 1450 1447 1443 1441 1437 1434 1431 1427 1421 1412 1409 1408 1406 1404 1401 1399 1396 1394 1391
1506 1506 1507 1506 1506 1505 1503 1501 1499 1497 1494 1491 1488 1484 1481 1477 1473 1469 1464 1460 1456 1453 1449 1445 1442 1438 1434 1432 1428 1424 1421 1418 1414 1408 1401 1400 1397 1396 1393 1390 1387 1385 1382
1501 1501 1502 1501 1500 1499 1497 1495 1493 1490 1487 1484 1481 1477 1473 1469 1465 1460 1456 1451 1447 1444 1441 1437 1433 1430 1426 1422 1419 1415 1412 1408 1405 1400 1395 1391 1389 1387 1385 1382 1378 1376 1373
1496 1496 1496 1496 1495 1493 1491 1489 1486 1484 1481 1477 1473 1469 1466 1461 1457 1452 1447 1442 1438 1434 1431 1428 1425 1421 1417 1414 1411 1407 1404 1400 1396 1392 1388 1384 1381 1379 1377 1374 1371 1367 1364
1490 1491 1491 1490 1489 1487 1485 1482 1480 1477 1473 1470 1466 1462 1457 1453 1449 1444 1439 1434 1430 1426 1422 1418 1415 1412 1408 1405 1402 1399 1396 1393 1388 1385 1380 1377 1374 1372 1370 1367 1363 1360 1355
1485 1486 1485 1484 1483 1481 1478 1475 1472 1469 1466 1462 1458 1453 1449 1445 1440 1435 1431 1426 1421 1417 1413 1409 1406 1402 1399 1395 1391 1388 1385 1383 1381 1378 1373 1369 1367 1364 1362 1358 1355 1352 1348
1480 1480 1480 1478 1476 1474 1471 1468 1465 1462 1458 1453 1449 1445 1440 1436 1432 1427 1422 1417 1412 1408 1405 1401 1397 1392 1390 1386 1382 1378 1375 1372 1371 1368 1364 1361 1358 1356 1354 1351 1347 1344 1340
1475 1475 1474 1472 1470 1467 1464 1461 1458 1454 1449 1445 1440 1436 1431 1426 1423 1418 1413 1407 1402 1398 1395 1392 1389 1384 1380 1378 1375 1370 1366 1362 1361 1359 1356 1353 1350 1349 1347 1343 1340 1337 1332
1470 1469 1468 1466 1463 1460 1457 1454 1450 1446 1441 1436 1431 1427 1422 1417 1413 1409 1405 1399 1394 1389 1385 1382 1380 1376 1373 1370 1367 1362 1357 1353 1351 1348 1346 1343 1341 1339 1338 1336 1333 1330 1326
1464 1463 1462 1460 1457 1454 1450 1447 1443 1438 1433 1427 1422 1418 1413 1409 1404 1400 1397 1392 1387 1381 1377 1373 1370 1368 1364 1361 1358 1354 1350 1346 1342 1339 1336 1334 1332 1330 1328 1327 1325 1322 1319
1459 1457 1455 1453 1450 1447 1443 1439 1435 1430 1424 1418 1413 1407 1403 1400 1396 1391 1388 1384 1380 1375 1369 1365 1362 1359 1356 1352 1349 1345 1342 1339 1334 1331 1328 1325 1323 1321 1319 1317 1316 1314 1311
1453 1451 1448 1446 1443 1440 1435 1431 1426 1421 1416 1410 1405 1398 1393 1389 1386 1383 1379 1375 1371 1367 1362 1357 1354 1351 1347 1343 1339 1336 1333 1330 1326 1323 1320 1317 1315 1313 1311 1309 1307 1305 1303
1446 1444 1441 1438 1434 1431 1427 1423 1418 1413 1408 1402 1397 1391 1385 1380 1376 1373 1369 1365 1361 1358 1353 1348 1345 1341 1338 1334 1330 1327 1325 1322 1319 1316 1312 1310 1308 1306 1304 1302 1300 1298 1297
1440 1437 1433 1430 1426 1422 1418 1414 1409 1405 1401 1396 1390 1385 1379 1372 1368 1366 1362 1357 1353 1349 1345 1340 1336 1332 1328 1325 1322 1319 1316 1314 1311 1309 1306 1303 1301 1299 1298 1296 1295 1293 1291
1432 1429 1426 1422 1418 1414 1409 1404 1399 1396 1392 1388 1383 1379 1372 1367 1361 1357 1353 1349 1345 1342 1337 1332 1328 1324 1321 1317 1314 1311 1309 1306 1304 1302 1299 1297 1295 1293 1291 1290 1289 1287 1286
1426 1422 1418 1414 1410 1405 1401 1395 1388 1384 1381 1377 1374 1369 1364 1358 1353 1349 1344 1340 1336 1333 1329 1324 1320 1317 1313 1310 1307 1304 1301 1299 1297 1295 1293 1291 1289 1287 1286 1284 1283 1282 1280
1419 1415 1411 1406 1402 1397 1393 1388 1382 1375 1369 1364 1362 1359 1354 1349 1344 1340 1336 1332 1326 1324 1320 1316 1312 1309 1306 1303 1300 1297 1294 1292 1290 1288 1286 1284 1283 1281 1280 1278 1277 1276 1275
1412 1407 1403 1398 1394 1389 1385 1379 1374 1369 1362 1356 1350 1347 1344 1339 1335 1331 1328 1324 1319 1315 1312 1308 1305 1301 1298 1295 1292 1289 1287 1284 1282 1281 1279 1277 1276 1275 1273 1272 1271 1271 1270
1404 1400 1395 1390 1386 1381 1376 1371 1366 1360 1354 1348 1343 1338 1334 1330 1325 1321 1318 1314 1310 1307 1303 1300 1296 1293 1290 1287 1284 1282 1279 1277 1275 1273 1272 1270 1269 1268 1267 1266 1265 1265 1264
1395 1391 1387 1382 1377 1372 1367 1362 1357 1352 1346 1340 1335 1331 1328 1323 1317 1313 1309 1305 1302 1298 1295 1291 1288 1284 1281 1279 1276 1273 1271 1269 1267 1266 1264 1263 1262 1261 1260 1260 1259 1259 1259
1387 1383 1378 1374 1369 1364 1359 1354 1349 1343 1338 1332 1326 1322 1319 1314 1309 1305 1300 1297 1293 1290 1286 1283 1279 1275 1273 1270 1268 1265 1263 1261 1259 1258 1257 1255 1255 1254 1253 1253 1253 1253 1253
1380 1375 1370 1365 1360 1355 1350 1345 1340 1334 1329 1323 1318 1313 1309 1305 1300 1296 1291 1288 1284 1280 1277 1274 1270 1266 1264 1261 1259 1257 1254 1252 1251 1250 1249 1248 1247 1246 1246 1246 1246 1246 1246
1371 1367 1362 1357 1352 1346 1341 1336 1331 1325 1320 1315 1310 1305 1300 1295 1291 1287 1282 1278 1275 1271 1267 1264 1261 1257 1255 1252 1250 1248 1245 1244 1242 1241 1241 1240 1239 1238 1238 1238 1238 1239 1239
1364 1359 1354 1348 1343 1338 1332 1326 1321 1316 1311 1306 1301 1296 1291 1286 1281 1277 1273 1269 1265 1261 1257 1254 1251 1248 1245 1242 1240 1238 1236 1234 1233 1233 1232 1231 1230 1230 1230 1230 1230 1231 1232
1355 1350 1345 1339 1334 1328 1323 1317 1312 1307 1302 1296 1291 1286 1282 1277 1272 1268 1263 1259 1255 1251 1248 1244 1241 1238 1235 1232 1229 1227 1226 1224 1223 1223 1223 1222 1221 1221 1221 1221 1222 1223 1224